Location: Izdebno
(52.6670°N, 16.2170°E)
Time: 09:23:50
(UTC+02:00)

A-11 Canister half - Pass Details

Date: 28 February 2024
Orbit: 1513 x 1686 km, 47.2° (Epoch: 24 April)

Event Time Altitude Azimuth Distance (km) Brightness Sun altitude
Exits shadow 04:32:35 30° 257° (WSW) 2,659 9.6 -20.8°
Maximum altitude 04:38:03 64° 188° (S) 1,797 9.2 -20.0°
Drops below altitude 10° 04:47:40 10° 110° (ESE) 3,821 11.9 -18.6°
Sets 04:50:44 0° 107° (ESE) 4,782 12.7 -18.1°
